Wind_Speed
95 96 96 96 97 97 98 98 98 98 98 98 98 99 99 98 98 97 97 96 96 95 95 94 94 94 94 94 94 93 93 92 92 91 91 91 90 90 90 89 88 87 86 85 83 82 80 78 76 74 72 70 69 68 67 66 65 64 64 63 63 62 62 62 62 62 62 62 62 62 62 62 63 63 64 64 64 64 64 64 64 64 63 62 61 60
99 99 99 99 100 100 100 99 99 99 99 99 99 99 99 99 98 98 98 98 98 98 97 97 96 96 96 96 96 95 95 94 94 93 92 92 91 90 90 89 88 87 85 83 82 80 78 76 74 72 70 68 67 65 64 63 62 61 60 60 59 59 58 58 58 58 58 58 58 59 59 59 60 60 60 60 60 60 60 60 60 59 58 58 57 56
102 102 102 102 102 102 102 102 101 101 100 100 100 100 100 100 100 100 100 100 100 100 100 99 99 98 98 98 98 98 97 96 95 94 93 92 91 90 89 88 87 85 84 82 80 78 76 74 72 70 68 66 65 63 62 60 59 58 57 56 56 55 55 54 54 54 54 54 55 55 55 56 56 56 56 56 56 56 55 55 55 54 54 53 52 51
104 104 104 104 104 104 104 104 104 103 103 103 103 103 103 103 103 103 102 103 103 102 102 102 101 101 100 100 100 99 99 98 97 96 94 93 92 90 89 87 85 84 82 80 78 76 74 72 70 68 66 65 63 61 60 58 57 56 55 53 53 52 51 51 51 51 50 51 51 51 51 52 52 52 52 52 51 51 51 51 50 50 49 48 47 47
106 106 106 106 106 106 106 106 106 106 106 105 105 105 105 106 106 106 105 105 105 105 104 104 103 103 102 102 101 101 100 99 98 96 95 93 91 90 88 86 84 82 80 78 77 75 73 71 69 67 65 63 61 60 58 57 55 54 53 51 50 49 49 48 48 48 47 47 47 47 48 48 48 48 48 48 47 47 47 46 46 46 45 45 44 43
108 108 109 109 109 109 109 109 109 108 108 108 107 107 108 108 108 108 108 107 107 106 106 106 105 104 104 103 102 101 101 99 98 96 94 92 91 89 87 85 83 81 79 77 75 73 71 70 68 66 64 62 60 59 57 56 54 53 51 50 49 48 47 47 46 46 45 45 45 45 45 45 45 45 45 44 44 44 43 43 43 42 42 42 42 42
111 111 111 112 112 111 111 111 111 111 110 110 109 109 109 109 110 110 110 109 108 108 107 106 106 105 104 103 102 101 100 99 97 95 93 91 89 88 86 84 82 80 78 76 74 72 71 69 67 65 63 62 60 58 57 55 54 52 51 50 49 48 47 46 46 45 45 44 44 44 44 43 43 43 43 42 42 42 41 41 41 41 41 41 41 41
114 114 114 114 114 113 113 113 112 112 112 111 111 110 110 110 110 110 111 110 109 108 107 106 105 104 103 102 101 100 99 97 96 94 92 90 88 87 85 83 81 79 77 75 73 72 70 68 66 65 63 61 60 58 57 56 54 53 52 51 50 49 48 47 46 46 45 45 44 44 44 43 43 43 42 42 41 41 41 40 40 40 40 40 41 41
116 116 116 115 115 115 114 114 113 113 112 112 111 111 110 110 110 110 110 110 109 108 107 106 104 103 102 101 100 98 97 96 94 93 91 89 87 86 84 82 80 78 77 75 73 71 69 68 66 65 63 62 60 59 58 56 55 54 53 52 51 50 49 48 47 47 46 46 45 45 44 44 44 43 43 42 42 42 41 41 41 41 41 41 41 42
117 117 116 116 115 115 115 114 114 113 112 112 112 111 110 110 109 109 109 109 109 107 106 105 103 102 101 100 98 97 96 94 93 91 90 88 87 85 83 82 80 78 76 74 73 71 69 68 66 65 64 62 61 60 59 58 56 55 54 54 53 52 51 50 49 48 48 47 47 46 46 46 45 45 44 44 43 43 43 42 42 42 42 42 43 43
117 117 116 116 115 114 114 114 114 113 112 112 111 110 109 109 108 108 108 108 107 106 105 104 102 101 100 98 97 95 94 93 92 90 89 88 86 85 83 81 80 78 76 74 73 71 70 68 67 66 64 63 62 61 60 59 58 57 56 55 55 54 53 52 51 51 50 49 49 48 48 48 47 47 46 46 45 45 45 44 44 44 44 44 44 45
117 116 116 115 115 114 113 113 112 111 111 111 111 110 109 108 107 107 107 107 106 105 105 103 101 100 98 97 96 94 93 92 91 89 88 87 86 84 83 81 80 78 76 75 73 72 70 69 68 67 65 64 63 62 62 61 60 59 58 58 57 56 55 54 54 53 52 52 51 51 50 50 49 49 48 48 48 47 47 47 47 46 46 46 47 47
115 115 114 114 113 112 112 111 111 110 110 110 109 109 108 107 106 105 105 105 105 104 104 103 101 99 97 96 95 94 93 91 90 89 88 87 86 85 83 82 80 79 77 76 74 73 71 70 69 68 67 66 65 64 64 63 62 61 61 60 59 58 58 57 56 56 55 54 54 53 53 52 52 51 51 51 50 50 50 49 49 49 49 49 49 49
114 113 113 113 112 111 111 110 110 110 109 109 108 108 107 106 105 105 104 104 104 103 103 103 102 100 98 96 95 94 93 92 90 89 88 88 87 85 84 83 81 80 78 77 76 74 73 72 71 70 69 68 67 66 66 65 64 64 63 62 62 61 60 60 59 58 57 57 56 56 55 55 55 54 54 53 53 52 52 52 52 51 51 51 51 51
114 114 113 113 112 112 111 111 111 110 110 109 108 108 107 107 106 105 105 104 103 103 103 103 102 101 99 97 96 95 94 93 92 90 90 89 88 86 85 84 83 81 80 78 78 76 75 74 73 72 71 70 70 69 68 68 67 66 66 65 64 63 63 62 61 61 60 59 59 58 58 58 57 57 56 56 55 55 55 54 54 54 53 53 53 53
116 116 115 115 114 114 113 113 113 112 112 111 110 110 109 108 108 107 106 105 104 104 103 103 103 102 101 99 98 96 95 95 94 92 91 90 89 88 87 86 85 83 82 81 80 79 77 77 76 75 74 73 72 72 71 70 70 69 68 67 67 66 65 65 64 63 63 62 61 61 60 60 60 59 59 58 58 58 57 57 57 56 56 56 56 55
118 118 118 117 117 116 116 115 115 114 114 113 113 112 111 111 110 109 108 107 106 105 105 105 104 104 104 102 101 99 98 97 96 95 94 93 92 90 89 88 87 86 84 83 82 81 80 79 78 78 77 76 75 75 74 73 72 72 71 70 69 68 68 67 66 66 65 64 64 63 63 63 62 62 61 61 60 60 60 59 59 59 58 58 58 58
121 120 120 120 119 119 118 118 117 117 116 116 115 115 114 113 112 111 110 109 109 108 107 107 106 106 106 106 104 102 100 99 99 98 96 95 94 93 91 90 89 88 87 86 85 84 83 82 81 80 80 79 78 78 77 76 75 75 74 73 72 71 70 69 69 68 67 67 66 66 65 65 64 64 64 63 63 62 62 62 61 61 60 60 60 60
124 123 123 122 122 121 121 120 120 120 119 119 118 117 117 115 114 113 113 112 111 110 110 109 108 108 108 108 107 105 102 102 101 100 99 98 97 95 94 93 92 91 90 89 88 87 86 85 84 83 83 82 81 81 80 79 78 77 76 76 75 74 73 72 71 70 70 69 68 68 67 67 67 66 66 65 65 65 64 64 63 63 63 62 62 62
127 126 125 125 124 124 124 123 123 122 122 121 120 120 119 118 117 116 115 114 113 112 111 111 110 110 109 109 109 107 105 104 103 103 102 101 100 98 96 96 95 94 93 92 90 89 88 88 87 86 85 85 84 83 83 82 81 80 79 78 77 76 75 74 73 73 72 71 71 70 70 69 69 68 68 67 67 67 66 66 66 65 65 64 64 64
129 128 127 126 126 126 126 125 125 124 124 123 123 123 122 121 120 118 117 116 115 114 113 112 112 111 110 110 110 109 107 106 106 106 105 103 102 101 99 98 97 96 95 94 93 92 91 90 89 89 88 87 87 86 85 85 84 83 82 81 80 79 78 77 76 75 74 74 73 72 72 71 71 70 70 69 69 69 68 68 67 67 67 66 66 65
129 129 128 127 127 127 127 127 126 125 125 125 125 125 124 123 122 121 120 119 117 116 115 114 113 112 111 111 111 110 109 108 108 108 107 106 105 103 101 100 99 99 98 97 95 94 93 93 92 91 90 90 89 88 88 87 86 85 84 83 82 81 80 79 78 77 77 76 75 74 74 73 73 72 72 71 71 71 70 70 69 69 68 68 68 67
129 128 128 127 127 127 127 127 127 126 126 126 126 126 126 124 124 123 121 120 119 118 117 116 114 113 112 112 112 111 111 110 110 109 108 108 107 106 103 102 101 101 100 99 98 96 95 95 94 93 92 92 91 91 90 89 88 88 86 85 84 83 82 81 80 80 79 78 77 77 76 75 75 74 74 73 73 72 72 71 71 71 70 70 69 68
129 128 127 127 127 127 127 127 127 126 126 126 127 127 126 125 124 123 122 121 120 119 118 117 116 115 114 113 113 113 112 111 111 111 110 110 109 107 105 104 103 103 102 101 99 98 97 97 96 95 94 94 93 93 92 91 90 89 88 87 86 85 84 83 82 81 81 80 79 79 78 77 76 76 75 75 74 74 73 73 72 72 72 71 70 70
129 128 127 127 126 126 126 126 126 126 126 126 127 127 126 126 125 124 123 122 121 120 119 118 118 117 116 114 114 114 113 112 112 112 112 111 110 109 107 106 105 105 104 102 101 100 99 98 98 97 96 96 95 95 94 93 92 91 90 89 88 87 86 85 84 83 82 82 81 80 80 79 78 78 77 76 76 75 75 74 74 73 73 72 72 71
128 127 126 125 125 125 125 125 125 125 125 126 126 126 126 125 125 124 124 123 122 121 120 119 119 117 116 115 115 115 114 113 113 113 112 112 111 110 109 107 106 106 105 104 102 102 101 100 100 99 98 98 97 96 96 95 94 93 92 91 90 89 87 86 85 85 84 83 83 82 81 81 80 79 78 78 77 77 76 76 75 75 74 74 73 72
125 124 124 123 123 123 123 123 123 123 124 124 125 125 125 125 125 125 125 124 122 121 121 120 119 118 117 116 116 116 115 114 114 113 113 113 112 112 110 109 108 107 106 105 104 103 103 102 102 101 100 99 99 98 97 96 95 95 93 92 91 90 89 88 87 86 85 85 84 84 83 82 81 81 80 79 79 78 78 77 77 76 76 75 74 74
121 121 120 120 120 120 120 120 120 121 121 122 122 123 123 124 124 125 125 123 122 121 121 121 120 119 118 117 117 116 116 115 115 114 113 113 113 113 111 110 109 108 108 107 106 105 105 104 104 103 102 101 100 99 99 98 97 96 95 94 93 92 91 89 89 88 87 86 86 85 84 84 83 82 81 81 80 80 79 79 78 78 77 76 76 75
116 116 116 116 116 116 116 116 116 117 117 118 119 120 121 121 123 123 123 122 122 122 121 121 120 119 118 117 116 116 116 116 116 115 113 114 114 114 112 111 110 110 109 109 108 107 107 106 106 105 104 103 102 101 100 99 99 98 97 96 95 94 92 91 90 89 88 88 87 87 86 85 84 84 83 82 82 81 81 80 80 79 78 78 77 76
111 111 111 111 111 111 111 112 112 112 113 114 115 116 117 118 119 120 120 120 120 121 121 120 119 119 117 117 116 117 117 117 116 115 114 115 115 115 113 112 112 111 110 110 110 109 109 108 107 106 105 104 104 103 102 101 101 100 99 98 97 95 94 93 92 91 90 89 89 88 87 87 86 85 85 84 83 83 82 82 81 81 80 79 79 78
107 107 107 107 107 107 107 107 108 108 108 109 110 111 112 113 114 115 116 117 117 118 118 118 118 117 116 116 116 117 117 116 115 114 114 116 117 116 114 113 113 112 111 110 111 111 111 109 108 107 107 106 105 105 104 103 102 102 101 100 99 97 96 95 94 93 92 91 90 89 89 88 87 87 86 85 85 84 84 83 83 82 81 81 80 80
103 103 103 103 103 103 103 103 103 103 104 104 105 106 107 108 110 111 111 112 113 114 115 115 115 115 114 114 115 116 116 115 114 114 115 117 118 117 115 114 114 113 111 111 111 111 111 111 110 109 108 108 107 106 105 105 104 104 103 102 101 100 98 97 96 95 94 93 92 91 90 90 89 88 88 87 86 86 85 85 84 83 83 82 82 81
99 99 99 99 99 99 99 100 100 100 100 101 101 102 103 104 105 106 106 107 108 109 110 111 111 112 112 112 112 112 113 113 114 114 115 117 118 117 115 114 114 113 112 111 111 111 112 112 111 110 110 110 109 108 107 106 105 105 104 103 103 101 100 99 97 97 95 94 93 93 92 91 91 90 89 89 88 87 87 86 86 85 84 84 83 83
95 95 96 96 96 96 96 96 96 97 97 97 98 98 99 99 100 101 102 102 103 103 104 106 107 108 108 108 108 108 109 111 112 113 114 116 117 116 114 113 113 113 112 112 112 112 112 112 112 112 112 111 110 109 108 107 107 106 105 105 104 103 102 100 99 98 97 96 95 94 94 93 92 92 91 90 89 89 88 88 87 86 86 85 85 84
91 92 92 93 93 93 93 93 93 94 94 94 94 95 95 96 96 97 97 98 98 99 100 101 102 103 104 104 105 105 106 108 109 111 112 114 114 114 113 112 112 112 112 112 112 112 112 113 112 112 113 112 111 110 109 108 107 107 106 106 105 104 103 102 101 100 99 98 97 96 95 95 94 93 92 92 91 90 90 89 88 88 87 86 86 85
87 88 88 89 89 90 90 90 90 90 91 91 91 91 92 92 93 93 94 94 95 95 96 96 97 98 99 100 101 101 102 104 106 108 110 111 111 111 112 111 111 111 112 112 113 112 113 113 113 112 112 113 113 112 110 109 108 107 107 107 106 105 104 103 102 102 101 100 99 98 97 96 95 95 94 93 93 92 91 91 90 89 88 87 87 86
82 83 84 85 85 86 86 86 87 87 87 88 88 88 89 89 90 90 91 91 91 92 92 93 93 94 95 95 96 97 98 100 102 105 107 108 108 108 109 110 110 110 111 112 112 112 112 113 113 112 112 113 113 112 111 110 109 108 108 108 107 106 105 104 104 103 102 101 100 99 98 97 97 96 95 95 94 93 93 92 91 90 89 89 88 87
78 79 80 80 81 81 82 83 83 84 84 85 85 85 86 86 87 87 88 88 88 89 89 89 90 90 91 91 92 93 94 96 99 101 103 104 104 105 106 107 108 109 110 110 111 111 111 112 112 112 112 112 112 112 111 111 110 110 109 108 107 107 106 106 105 104 103 103 102 101 100 99 98 97 97 96 95 95 94 93 92 91 90 90 89 89
74 74 75 76 76 77 78 78 79 80 80 81 81 82 82 83 83 84 84 85 85 85 86 86 86 87 87 88 88 89 91 93 95 97 99 100 101 101 102 103 105 106 107 107 108 109 110 110 111 111 112 112 112 112 111 111 111 111 110 108 108 107 107 107 106 105 105 104 103 103 102 100 100 99 98 98 97 96 96 95 94 92 92 91 90 90
70 71 71 72 72 73 74 74 75 76 76 77 78 78 79 79 80 81 81 82 82 82 83 83 83 83 84 84 85 86 87 89 90 92 94 96 97 97 98 100 101 102 103 104 105 106 107 108 108 109 109 110 111 111 111 111 111 110 110 109 109 109 108 107 107 106 106 105 105 104 103 102 101 100 100 99 98 98 97 96 95 94 93 92 92 92
66 67 68 68 69 69 70 70 71 72 72 73 74 74 75 76 77 77 78 78 79 79 79 80 80 80 81 81 82 83 84 85 86 88 90 91 92 93 94 95 96 98 99 100 101 102 103 104 105 106 107 108 109 110 110 110 110 110 110 110 110 109 108 107 107 107 106 106 105 105 104 103 103 102 101 101 100 99 98 97 96 95 94 94 93 93
63 64 64 65 65 66 66 67 67 68 69 69 70 71 71 72 73 74 74 75 75 76 76 77 77 78 78 78 79 79 80 81 83 84 86 87 88 89 90 91 92 94 95 96 97 99 99 101 102 103 104 105 106 107 108 108 109 109 109 109 109 108 108 108 108 107 107 107 106 106 105 105 104 103 102 102 101 100 99 98 97 97 96 95 94 94
60 61 61 62 62 63 63 63 64 64 65 66 66 67 68 68 69 70 71 71 72 73 73 74 74 74 75 75 76 76 77 78 80 81 82 84 85 86 87 88 89 90 91 92 94 95 96 97 98 99 100 101 102 103 105 106 107 107 108 108 107 108 108 108 107 107 107 107 106 106 105 105 105 104 103 103 102 101 100 99 98 98 97 96 95 95
58 58 58 59 59 59 60 60 61 61 62 62 63 64 64 65 65 66 67 68 69 69 70 70 71 71 72 72 73 74 75 76 77 78 79 80 81 82 83 84 85 86 87 89 90 91 92 93 94 95 96 97 98 100 101 103 104 105 106 106 106 106 107 107 106 105 106 106 106 106 105 105 104 104 103 103 102 102 101 100 99 98 97 97 96 96
55 55 55 56 56 56 57 57 58 58 59 59 60 60 61 62 62 63 64 65 65 66 67 67 68 68 69 69 70 71 72 73 74 75 76 77 78 79 80 81 82 83 84 85 86 87 88 89 90 91 92 93 94 96 98 99 101 102 103 104 104 104 105 105 104 105 105 105 105 105 105 104 104 104 104 104 103 102 101 101 100 99 98 97 97 96
52 52 52 53 53 53 54 54 54 55 55 56 57 57 58 59 59 60 61 62 63 63 64 64 65 66 66 67 67 68 69 70 71 72 73 74 75 76 77 78 79 80 81 82 82 83 84 85 86 87 88 89 91 93 94 96 97 99 100 101 101 102 103 103 103 103 104 104 104 104 104 104 104 104 104 104 103 102 101 101 100 99 99 98 97 97
49 50 50 50 50 50 51 51 51 52 53 53 54 55 55 56 57 57 58 59 60 60 61 61 62 63 63 64 65 66 67 67 68 69 70 71 72 73 74 75 76 76 77 78 79 80 80 81 82 83 84 86 87 89 90 92 94 95 97 98 99 100 100 101 101 101 101 102 102 103 103 103 103 104 104 103 103 102 101 101 100 99 99 98 98 97
47 47 47 47 47 48 48 48 49 49 50 50 51 52 52 53 54 55 55 56 57 57 58 58 59 60 60 61 62 63 64 64 65 66 67 68 69 69 70 71 72 73 74 74 75 76 77 78 78 79 81 82 84 85 86 88 89 91 93 94 95 97 98 98 98 98 98 99 100 101 101 102 102 103 102 102 102 102 101 100 100 99 98 98 98 97
45 45 45 45 45 45 45 46 46 47 47 48 48 49 49 50 51 51 52 53 53 54 55 56 56 57 58 58 59 60 61 61 62 63 64 65 66 66 67 68 69 70 70 71 72 72 73 74 75 76 77 79 80 82 83 84 86 87 89 91 92 94 94 95 95 95 96 97 98 98 99 100 100 101 100 101 101 101 100 99 99 98 98 97 97 97
42 42 43 43 43 43 43 43 44 44 44 45 45 46 46 47 48 48 49 50 50 51 52 53 53 54 55 56 56 57 58 59 60 60 61 62 63 63 64 65 66 66 67 68 68 69 70 71 72 73 74 76 77 78 80 81 82 83 85 87 89 90 91 92 92 92 93 94 95 96 97 97 98 98 99 99 99 99 98 98 98 97 97 97 97 97
41 40 40 40 41 41 41 41 41 41 42 42 43 43 44 44 45 45 46 47 47 48 49 50 50 51 52 53 54 54 55 56 57 58 59 59 60 61 62 62 63 63 64 65 65 66 67 68 69 70 71 73 74 75 76 78 79 80 82 84 85 86 88 88 89 89 90 91 92 93 94 95 95 96 96 97 97 97 96 96 96 96 95 95 95 96
Wind_Direction
277 277 277 278 278 278 279 279 280 280 280 280 280 280 281 281 281 281 282 282 282 282 282 282 282 282 283 283 283 283 283 283 283 283 283 283 283 283 284 284 284 284 284 284 284 284 284 283 283 282 282 281 281 280 279 279 278 277 277 276 275 275 274 273 273 273 272 272 272 271 271 271 271 271 271 272 272 273 274 274 275 276 277 278 279 279
277 277 278 278 278 279 279 279 279 280 280 280 280 280 281 281 281 281 282 282 282 282 282 283 283 283 283 283 283 283 283 283 283 283 283 283 283 283 284 284 284 284 284 284 284 284 284 283 283 283 282 282 281 280 280 279 278 277 276 276 275 274 274 273 273 272 272 271 271 271 271 270 270 271 271 271 272 272 273 274 274 275 276 277 278 278
278 278 279 279 279 279 279 280 280 280 280 280 280 280 281 281 281 281 281 282 282 282 282 283 283 283 283 283 283 283 283 283 283 283 283 283 283 283 283 283 284 284 284 284 284 284 283 283 283 283 282 282 281 280 280 279 278 277 277 276 275 275 274 273 273 272 272 271 271 271 270 270 270 270 271 271 272 272 273 273 274 275 275 276 277 277
278 278 278 278 279 279 279 279 280 280 280 280 280 280 281 281 281 281 281 281 281 282 282 282 282 282 282 282 283 283 283 283 283 283 283 283 283 283 283 283 283 283 283 283 283 283 283 283 283 282 282 281 281 280 280 279 278 277 277 276 275 275 274 274 273 273 272 272 271 271 270 270 270 270 271 271 271 272 272 273 273 274 274 275 275 276
276 276 276 277 277 277 278 278 278 279 279 279 279 279 279 280 280 280 280 280 281 281 281 281 281 282 282 282 282 282 282 282 283 283 283 283 283 283 283 283 283 283 283 283 283 282 282 282 282 282 282 281 281 280 279 279 278 278 277 277 276 275 275 274 274 273 273 272 272 271 271 271 271 271 271 271 271 272 272 272 273 273 273 274 274 274
274 274 275 275 275 276 276 277 277 277 277 277 277 277 278 278 278 279 279 279 279 280 280 280 280 281 281 281 281 281 282 282 282 282 282 282 282 282 282 282 282 282 282 282 282 282 282 282 282 281 281 280 280 279 279 278 278 278 277 277 276 276 275 275 274 274 273 273 273 272 272 271 271 271 271 271 271 271 271 272 272 272 272 272 273 273
274 274 275 275 275 275 275 275 275 276 276 275 275 276 276 276 277 277 278 278 279 279 279 279 280 280 280 280 280 281 281 281 281 281 281 282 282 282 282 281 281 281 281 281 281 281 281 281 281 280 280 280 279 279 278 278 278 277 277 277 276 276 276 275 275 274 274 274 273 273 273 272 272 272 272 272 272 271 271 271 271 271 271 271 272 272
275 275 275 275 275 275 275 275 275 275 275 275 275 275 275 275 276 277 277 278 278 278 278 279 279 279 279 279 280 280 280 280 280 281 281 281 281 281 281 281 281 280 280 280 280 280 280 280 280 279 279 279 278 278 278 277 277 277 277 277 276 276 276 275 275 275 274 274 274 273 273 273 272 272 272 272 272 271 271 271 271 271 271 271 271 271
274 274 274 274 274 274 274 274 274 274 274 274 274 274 275 275 275 276 276 277 277 278 278 278 278 278 279 279 279 279 279 279 280 280 280 280 280 280 280 280 280 280 279 279 279 279 279 279 278 278 278 278 277 277 277 277 277 276 276 276 276 276 275 275 275 274 274 274 274 273 273 273 273 272 272 272 272 271 271 271 270 270 270 270 270 271
273 273 273 273 273 273 273 274 274 274 274 274 275 275 275 275 275 275 276 276 277 277 277 277 277 278 278 278 278 278 278 279 279 279 279 279 279 279 279 279 279 279 278 278 278 278 278 278 277 277 277 277 277 276 276 276 276 276 276 275 275 275 275 274 274 274 274 273 273 273 273 273 272 272 272 272 271 271 271 270 270 270 270 270 270 271
273 273 273 274 274 274 274 274 274 274 275 275 275 275 275 275 275 275 275 275 276 276 277 277 277 277 277 277 277 277 278 278 278 278 278 278 278 278 278 278 278 278 278 277 277 277 277 277 277 276 276 276 276 276 275 275 275 275 275 275 275 274 274 274 274 273 273 273 273 273 272 272 272 272 272 271 271 271 271 270 270 270 270 270 270 271
274 274 274 274 274 274 274 274 275 275 275 275 275 275 275 275 275 275 275 275 275 276 276 276 276 276 276 276 276 277 277 277 277 277 277 277 277 277 277 277 277 277 277 277 277 276 276 276 276 276 275 275 275 275 275 275 274 274 274 274 274 274 274 273 273 273 273 272 272 272 272 272 272 271 271 271 271 271 271 270 270 270 270 270 271 271
275 275 275 275 275 275 275 275 275 275 275 275 275 275 275 275 275 275 275 275 275 275 275 276 276 276 276 276 276 276 276 276 276 276 276 276 276 276 276 276 276 276 276 276 276 276 275 275 275 275 275 275 274 274 274 274 274 274 273 273 273 273 273 273 273 273 272 272 272 272 272 272 272 271 271 271 271 271 271 271 270 270 271 271 271 271
276 276 276 276 276 276 276 275 275 275 275 275 275 275 275 275 275 275 274 274 274 274 275 275 275 275 275 275 275 275 275 275 275 275 275 275 275 275 275 275 275 275 275 275 275 275 275 275 275 274 274 274 274 273 273 273 273 273 273 273 273 273 272 272 272 272 272 272 272 272 272 272 271 272 271 271 271 271 271 271 271 271 271 272 272 272
277 277 277 277 276 276 276 276 276 276 275 275 275 275 275 275 274 274 274 274 274 274 274 274 274 275 275 274 274 274 274 274 274 274 274 274 274 274 274 274 274 274 274 274 274 274 274 274 274 274 274 273 273 273 273 272 272 272 272 272 272 272 272 272 272 272 272 272 272 272 272 272 272 272 271 271 271 271 271 272 272 272 272 272 272 273
278 278 277 277 277 277 277 276 276 276 276 275 275 275 275 274 274 274 274 273 273 273 273 273 274 274 274 274 274 274 273 273 273 273 273 273 273 273 273 273 273 273 273 273 273 273 273 273 273 273 273 273 272 272 272 272 272 271 271 271 271 271 271 271 271 271 271 271 271 271 271 271 271 271 272 272 272 272 272 272 272 272 272 273 273 273
279 279 278 278 278 277 277 277 276 276 276 275 275 275 274 274 274 274 274 273 273 273 273 273 273 273 273 273 273 273 273 272 272 272 272 272 272 272 272 272 272 273 273 272 272 272 272 272 272 272 272 272 272 271 271 271 271 271 271 271 270 270 270 270 271 271 271 271 271 271 271 271 271 271 271 272 272 272 272 272 272 272 272 273 273 273
279 279 279 278 278 278 278 277 277 276 276 275 275 275 275 274 274 274 273 273 273 273 273 272 272 272 272 273 273 272 272 272 272 272 272 272 271 272 272 271 271 272 272 271 271 271 271 271 271 271 271 271 271 271 270 270 270 270 270 270 270 270 270 270 270 270 270 270 270 271 271 271 271 271 271 271 271 272 272 272 272 272 272 273 273 273
280 279 279 278 278 278 277 277 277 276 276 275 275 275 274 274 274 274 273 273 273 272 272 272 272 272 272 272 272 272 272 271 271 271 271 271 271 271 271 271 271 270 270 270 270 270 270 270 270 270 270 270 270 270 270 270 270 269 269 269 269 269 269 270 270 270 270 270 270 270 270 270 271 271 271 271 271 271 272 272 272 272 272 273 273 273
279 278 278 278 277 277 277 276 276 276 275 275 275 275 274 274 274 273 273 273 272 272 272 271 271 271 271 271 271 271 271 271 271 271 271 270 270 270 270 270 270 269 269 269 269 269 269 269 269 269 269 269 269 269 269 269 269 269 269 269 269 269 269 269 269 269 269 270 270 270 270 270 270 270 271 271 271 271 271 272 272 272 272 272 273 273
277 277 277 276 276 276 276 275 275 275 274 274 274 274 274 273 273 273 272 272 272 271 271 271 270 270 270 270 270 270 271 270 270 270 270 270 270 269 269 269 269 268 268 268 268 268 268 268 268 268 268 268 268 268 268 268 268 268 268 268 268 269 269 269 269 269 269 269 269 269 270 270 270 270 270 271 271 271 271 272 272 272 272 272 273 273
276 276 275 275 275 274 274 274 274 274 273 273 273 273 273 272 272 272 272 271 271 271 271 270 270 270 269 269 269 269 270 269 269 269 269 269 269 269 268 268 268 268 268 267 267 267 267 267 267 267 267 267 267 267 267 267 267 267 268 268 268 268 268 268 268 269 269 269 269 269 269 269 269 270 270 270 270 271 271 271 272 272 272 272 273 273
275 275 275 274 274 273 273 273 273 273 272 272 272 272 272 272 271 271 271 271 270 270 270 270 269 269 269 268 268 268 268 268 268 268 268 268 268 268 268 268 267 267 267 267 267 267 266 266 266 266 266 266 266 266 266 266 267 267 267 267 267 267 268 268 268 268 268 268 269 269 269 269 269 269 270 270 270 270 271 271 271 272 272 272 273 273
275 274 274 274 273 273 273 272 272 272 271 271 271 271 271 271 270 270 270 270 269 269 269 269 269 268 268 267 267 267 267 267 267 267 267 267 267 267 267 267 267 267 266 266 266 266 266 266 266 266 266 265 265 266 266 266 266 266 266 266 266 267 267 267 267 267 268 268 268 268 268 268 269 269 269 269 270 270 270 270 271 271 272 272 272 273
274 274 274 273 273 272 272 271 271 271 271 270 270 270 270 270 270 269 269 269 269 268 268 268 268 267 267 267 267 266 266 266 266 266 266 266 266 266 266 266 266 266 266 266 266 265 265 265 265 265 265 265 265 265 265 265 265 265 266 266 266 266 266 266 266 267 267 267 267 267 268 268 268 268 269 269 269 269 270 270 270 271 271 271 272 272
274 273 273 273 272 272 271 271 270 270 270 270 269 269 269 269 269 269 269 268 268 268 268 267 267 267 266 266 266 266 265 265 265 265 265 265 265 265 265 265 265 265 265 265 265 265 265 265 265 264 264 264 264 264 264 265 265 265 265 265 265 265 265 266 266 266 266 266 267 267 267 267 267 268 268 268 268 269 269 269 270 270 271 271 271 272
274 273 273 272 272 271 271 270 270 269 269 269 269 268 268 268 268 268 268 268 267 267 267 267 266 266 266 265 265 265 265 264 264 264 264 264 264 265 264 264 264 264 264 264 264 264 264 264 264 264 264 264 264 264 264 264 264 264 264 265 265 265 265 265 265 265 265 266 266 266 266 267 267 267 267 268 268 268 268 269 269 270 270 270 271 271
273 273 273 272 272 271 270 270 269 269 268 268 268 268 267 267 267 267 267 267 267 267 266 266 266 265 265 265 264 264 264 264 264 263 263 263 264 264 264 263 263 263 263 263 263 263 263 263 263 263 263 263 263 263 264 264 264 264 264 264 264 264 264 264 264 265 265 265 265 265 266 266 266 266 267 267 267 268 268 268 269 269 269 270 270 271
273 273 272 272 271 271 270 270 269 268 268 267 267 267 266 266 266 266 266 266 266 266 266 265 265 264 264 264 264 263 263 263 263 262 262 263 263 263 263 262 262 262 262 263 263 263 262 262 262 262 262 263 263 263 263 263 263 263 264 264 264 264 264 264 264 264 264 264 264 265 265 265 265 266 266 266 267 267 267 268 268 268 269 269 270 270
273 273 272 272 271 271 270 269 269 268 267 267 266 266 265 265 265 265 264 264 264 264 264 264 264 264 263 263 263 263 263 262 262 262 262 262 262 262 262 261 261 261 261 262 262 262 262 262 261 262 262 262 262 262 262 262 263 263 263 263 263 263 263 263 263 263 264 264 264 264 264 265 265 265 265 266 266 266 267 267 267 268 268 269 269 270
273 272 272 271 271 270 270 269 268 268 267 266 266 265 265 264 264 263 263 263 263 263 263 263 263 263 262 262 262 262 262 261 261 261 261 261 261 261 261 261 260 260 260 260 260 260 261 261 261 261 261 261 261 261 261 262 262 262 262 262 263 263 263 263 263 263 263 263 263 264 264 264 264 265 265 265 265 266 266 266 267 267 268 268 268 269
273 272 272 271 271 270 269 269 268 267 267 266 265 264 264 263 263 263 262 262 262 262 261 261 262 261 261 261 261 261 261 260 260 260 260 260 260 260 260 260 260 259 259 259 259 260 260 260 260 260 260 260 260 260 260 261 261 261 261 262 262 262 262 262 262 262 263 263 263 263 263 264 264 264 264 264 265 265 265 266 266 267 267 267 268 268
272 272 271 271 270 270 269 268 268 267 266 266 265 264 263 263 262 262 261 261 261 260 260 260 260 260 260 260 260 259 259 259 259 259 259 259 259 259 258 258 258 259 258 258 258 259 259 259 259 260 259 259 259 260 260 260 260 260 261 261 261 261 262 262 262 262 262 262 262 263 263 263 263 263 264 264 264 265 265 265 265 266 266 267 267 267
272 271 271 270 270 269 268 268 267 267 266 265 265 264 263 263 262 262 261 261 260 260 260 259 259 259 259 259 259 258 258 258 258 258 258 258 258 258 258 258 258 258 258 258 258 258 258 258 259 259 259 259 259 259 259 259 259 259 260 260 260 261 261 261 261 261 262 262 262 262 262 262 263 263 263 263 264 264 264 264 265 265 265 266 266 267
271 270 270 270 269 269 268 268 267 267 266 265 265 264 264 263 262 262 262 261 261 260 259 259 259 258 258 258 258 258 257 257 257 257 257 257 257 257 257 257 257 257 257 257 257 257 257 257 257 258 258 258 258 258 258 258 258 259 259 259 259 260 260 260 260 261 261 261 261 261 261 262 262 262 262 263 263 263 263 264 264 264 265 265 266 266
271 270 270 269 269 269 268 268 267 267 266 266 265 264 264 263 263 262 262 261 261 260 260 259 258 258 258 257 257 257 256 256 256 256 256 256 256 256 256 256 256 256 256 256 256 256 256 256 256 256 257 257 257 257 257 257 257 258 258 258 258 259 259 259 260 260 260 260 260 261 261 261 261 262 262 262 262 263 263 263 263 264 264 265 265 265
271 270 270 269 269 268 268 268 267 267 266 266 265 265 264 264 263 263 262 261 261 260 260 259 258 258 257 257 256 256 256 255 255 255 255 255 255 255 255 255 255 254 255 255 255 255 255 255 255 255 256 256 256 256 257 257 257 257 257 257 257 258 258 258 259 259 259 260 260 260 260 260 261 261 261 261 262 262 262 263 263 263 264 264 264 265
272 271 270 270 269 268 268 267 267 266 266 265 265 265 264 264 263 263 262 262 261 260 260 259 258 258 257 257 256 255 255 255 254 254 254 254 254 253 253 253 253 253 253 253 253 253 253 254 254 254 254 255 255 255 256 256 256 256 256 256 256 257 257 257 258 258 258 259 259 259 259 260 260 260 261 261 261 261 262 262 262 263 263 264 264 264
272 271 271 270 269 268 268 267 267 266 266 265 265 264 264 263 263 262 262 261 261 260 260 259 259 258 257 257 256 255 254 254 253 253 253 253 253 253 252 252 252 252 252 252 252 252 252 252 252 253 253 253 254 254 254 255 255 255 255 255 255 256 256 256 257 257 257 258 258 258 259 259 259 259 260 260 260 261 261 261 262 262 262 263 263 264
273 272 271 270 269 269 268 267 266 266 265 265 264 264 264 263 263 262 262 261 261 261 260 259 259 258 257 257 256 255 254 254 253 253 253 253 252 252 252 251 251 251 251 251 251 251 251 251 251 251 251 252 252 253 253 253 254 254 254 255 255 255 255 255 255 256 256 257 257 257 258 258 258 259 259 259 260 260 260 261 261 261 262 262 262 263
273 272 272 271 270 269 268 267 267 266 265 265 264 264 263 263 262 262 262 261 261 260 260 259 259 258 257 257 256 255 254 254 253 253 252 252 252 252 251 251 251 250 250 250 250 250 250 250 250 250 250 250 251 251 252 252 252 253 253 253 254 254 254 254 254 255 255 256 256 256 257 257 257 258 258 258 259 259 259 260 260 260 261 261 261 262
274 273 272 271 270 270 269 268 267 266 266 265 264 264 263 263 262 262 261 261 261 260 260 259 259 258 257 257 256 255 255 254 253 253 252 252 252 252 251 251 251 250 250 250 250 249 249 249 249 249 249 249 249 250 250 251 251 251 252 252 252 252 253 253 253 254 254 254 255 255 255 256 256 257 257 257 258 258 258 259 259 259 260 260 260 261
275 274 273 272 271 270 270 269 268 267 266 265 265 264 263 263 262 262 261 261 260 260 259 259 258 258 257 257 256 255 255 254 253 253 252 252 252 251 251 251 250 250 250 249 249 249 249 248 248 248 248 248 248 248 249 249 250 250 250 251 251 251 252 252 252 252 252 253 253 254 254 255 255 255 256 256 256 257 257 258 258 258 259 259 260 260
276 275 274 273 272 271 270 269 269 268 267 266 265 264 263 263 262 261 261 260 260 259 259 258 258 257 257 256 255 255 254 253 253 252 252 251 251 250 250 250 249 249 249 249 248 248 248 248 248 247 247 247 247 247 248 248 249 249 249 249 250 250 250 251 251 251 251 252 252 253 253 253 254 254 255 255 255 256 256 256 257 257 258 258 258 259
277 276 274 274 273 272 271 270 269 268 267 267 266 265 264 263 262 261 260 260 259 259 258 257 257 256 256 255 255 254 253 253 252 251 251 251 250 250 249 249 249 248 248 248 247 247 247 247 247 247 246 246 246 246 247 247 247 248 248 248 249 249 249 249 249 250 250 251 251 251 252 252 253 253 254 254 254 255 255 255 256 256 256 257 257 258
278 277 276 274 273 272 272 271 270 269 268 267 266 265 264 263 262 261 260 259 259 258 257 257 256 256 255 254 254 253 253 252 251 251 251 250 250 249 249 249 248 248 248 247 247 247 246 246 246 246 246 246 245 245 245 246 246 247 247 247 248 248 248 248 248 249 249 249 250 250 251 251 251 252 252 253 253 253 254 254 254 255 255 256 256 257
279 278 277 276 274 273 272 271 270 269 268 267 266 265 264 263 262 261 260 259 259 258 257 257 256 255 255 254 253 253 252 252 251 251 250 250 249 249 248 248 248 247 247 247 247 246 246 246 246 245 245 245 245 244 244 244 245 245 245 246 246 247 247 247 247 247 247 248 248 249 249 250 250 251 251 251 252 252 252 253 253 253 254 254 255 255
280 279 278 277 275 274 273 272 271 269 268 267 266 265 264 263 262 261 261 260 259 258 258 257 256 255 255 254 253 252 252 251 251 250 250 249 249 248 248 248 247 247 247 246 246 246 246 245 245 245 244 244 244 244 244 244 244 244 244 245 245 245 246 246 246 246 246 247 247 247 248 248 249 249 250 250 251 251 251 251 252 252 252 253 254 254
282 281 279 278 277 275 274 273 271 270 269 268 266 266 265 264 263 262 261 260 260 259 258 257 256 256 255 254 253 252 252 251 251 250 249 249 248 248 248 247 247 247 246 246 246 245 245 245 244 244 244 244 243 243 243 243 243 243 243 244 244 244 245 245 245 245 245 245 246 246 246 247 247 248 248 249 249 250 250 250 250 251 251 252 252 253
283 282 281 279 278 277 275 274 273 271 270 269 268 267 266 265 264 263 262 261 260 259 258 257 256 256 255 254 253 252 252 251 250 250 249 249 248 248 247 247 246 246 246 245 245 245 244 244 243 243 243 242 242 242 242 242 242 242 242 242 243 243 243 244 244 244 244 244 244 245 245 246 246 246 247 247 248 248 248 249 249 249 250 250 251 251
285 283 282 281 279 278 276 275 274 273 271 270 269 267 266 265 264 263 262 261 260 259 258 257 256 256 255 254 253 252 251 251 250 249 249 248 247 247 246 246 246 245 245 244 244 244 243 243 242 242 242 241 241 241 241 241 241 241 241 241 242 242 242 243 243 243 243 243 243 243 244 244 244 245 245 246 246 247 247 247 248 248 248 249 249 250
Height
10493 10493 10493 10493 10492 10491 10490 10490 10490 10490 10488 10486 10486 10484 10483 10483 10483 10483 10483 10482 10483 10483 10485 10486 10486 10487 10487 10486 10486 10486 10486 10487 10488 10488 10488 10488 10488 10487 10487 10486 10486 10486 10486 10486 10486 10486 10487 10488 10488 10488 10488 10488 10488 10488 10488 10488 10488 10488 10488 10487 10487 10487 10487 10487 10487 10487 10487 10487 10488 10488 10488 10488 10488 10488 10488 10488 10489 10489 10490 10490 10490 10490 10490 10491 10491 10491
10485 10485 10486 10485 10485 10485 10483 10482 10483 10483 10481 10480 10479 10478 10476 10476 10476 10476 10476 10475 10475 10475 10476 10477 10478 10478 10478 10478 10478 10478 10478 10478 10480 10480 10480 10481 10481 10481 10480 10480 10480 10480 10480 10479 10480 10480 10480 10480 10481 10481 10481 10481 10481 10481 10481 10481 10481 10481 10481 10481 10481 10481 10481 10481 10481 10482 10482 10482 10482 10483 10483 10483 10483 10483 10483 10484 10485 10485 10485 10485 10486 10486 10486 10486 10486 10486
10478 10477 10476 10476 10476 10476 10475 10474 10475 10475 10474 10473 10472 10471 10470 10468 10468 10468 10468 10468 10467 10466 10467 10468 10469 10470 10470 10470 10470 10470 10470 10470 10471 10471 10472 10473 10473 10473 10473 10473 10473 10473 10473 10473 10473 10473 10473 10473 10474 10474 10475 10475 10475 10475 10475 10475 10476 10476 10476 10476 10476 10476 10476 10476 10476 10477 10477 10477 10478 10478 10478 10478 10478 10478 10479 10480 10480 10480 10481 10481 10481 10482 10482 10482 10483 10483
10470 10468 10467 10467 10467 10468 10466 10466 10466 10466 10466 10466 10465 10464 10463 10461 10460 10460 10460 10460 10460 10460 10459 10460 10461 10461 10462 10462 10462 10461 10461 10461 10462 10463 10464 10465 10465 10466 10466 10466 10466 10466 10466 10466 10466 10466 10466 10467 10467 10468 10468 10468 10469 10469 10469 10470 10470 10470 10470 10471 10471 10471 10471 10471 10472 10472 10472 10473 10473 10473 10473 10473 10473 10474 10475 10475 10476 10476 10476 10477 10478 10478 10478 10478 10478 10479
10461 10460 10459 10459 10459 10459 10458 10458 10459 10459 10458 10458 10458 10457 10455 10454 10453 10452 10452 10453 10453 10453 10452 10452 10453 10453 10454 10454 10454 10454 10453 10454 10454 10455 10456 10457 10458 10458 10459 10459 10460 10460 10460 10460 10460 10460 10461 10461 10461 10461 10461 10462 10463 10463 10463 10463 10464 10465 10465 10465 10466 10466 10466 10467 10467 10467 10468 10468 10468 10468 10469 10469 10470 10470 10470 10471 10471 10472 10473 10473 10473 10474 10475 10475 10475 10475
10453 10452 10451 10451 10451 10451 10450 10451 10450 10450 10451 10451 10451 10450 10449 10447 10445 10444 10443 10444 10445 10445 10445 10445 10445 10445 10446 10446 10446 10446 10446 10446 10446 10447 10448 10450 10450 10451 10451 10451 10452 10453 10453 10453 10454 10454 10455 10455 10455 10455 10456 10456 10456 10457 10458 10458 10458 10459 10460 10460 10461 10461 10462 10462 10463 10463 10463 10463 10464 10464 10465 10465 10465 10465 10466 10467 10468 10468 10469 10470 10470 10470 10471 10471 10471 10471
10443 10443 10443 10443 10443 10442 10442 10442 10441 10441 10441 10441 10442 10442 10442 10440 10438 10436 10435 10435 10435 10436 10437 10437 10437 10437 10438 10438 10438 10439 10439 10439 10439 10440 10441 10441 10443 10443 10444 10445 10445 10446 10446 10447 10448 10448 10448 10449 10449 10450 10450 10450 10451 10451 10452 10453 10453 10454 10455 10455 10456 10456 10457 10458 10458 10458 10459 10459 10460 10460 10460 10460 10461 10461 10462 10463 10463 10465 10465 10466 10466 10466 10467 10468 10468 10468
10433 10433 10433 10433 10433 10433 10433 10433 10433 10432 10432 10432 10432 10433 10433 10433 10431 10430 10427 10426 10426 10426 10428 10429 10429 10430 10430 10430 10431 10431 10431 10431 10432 10433 10433 10434 10435 10436 10436 10437 10438 10438 10440 10440 10441 10441 10442 10443 10443 10443 10444 10445 10445 10446 10446 10447 10448 10449 10450 10450 10451 10451 10452 10453 10453 10454 10454 10455 10455 10456 10456 10456 10457 10458 10458 10459 10460 10461 10461 10462 10463 10463 10464 10465 10465 10465
10423 10423 10422 10422 10423 10423 10423 10422 10422 10422 10423 10422 10422 10423 10424 10425 10424 10422 10420 10418 10416 10416 10418 10420 10421 10421 10421 10422 10423 10423 10423 10425 10425 10425 10426 10426 10428 10428 10429 10430 10430 10431 10433 10433 10434 10435 10436 10436 10437 10438 10438 10439 10440 10440 10441 10441 10443 10443 10444 10445 10446 10446 10448 10448 10449 10450 10450 10450 10451 10451 10452 10453 10453 10454 10455 10455 10456 10457 10458 10458 10459 10460 10460 10461 10461 10461
10411 10412 10411 10411 10411 10412 10413 10412 10411 10411 10412 10412 10412 10413 10414 10415 10415 10414 10413 10410 10408 10408 10409 10411 10412 10413 10413 10414 10415 10415 10416 10417 10418 10418 10419 10419 10420 10421 10421 10422 10423 10425 10425 10426 10428 10428 10430 10430 10431 10431 10432 10433 10434 10435 10435 10436 10437 10438 10439 10440 10441 10441 10443 10443 10444 10445 10445 10446 10446 10447 10448 10448 10449 10450 10451 10451 10452 10453 10454 10455 10455 10456 10456 10457 10458 10458
10399 10400 10400 10400 10400 10401 10402 10402 10401 10401 10401 10402 10402 10402 10403 10405 10405 10405 10405 10403 10401 10400 10400 10401 10403 10405 10406 10406 10406 10408 10409 10410 10410 10411 10411 10411 10412 10413 10414 10415 10416 10417 10418 10420 10421 10422 10423 10424 10425 10425 10426 10427 10428 10429 10430 10431 10431 10432 10433 10434 10435 10436 10437 10438 10439 10440 10441 10441 10442 10443 10443 10444 10445 10446 10446 10447 10448 10449 10450 10451 10451 10452 10453 10453 10454 10455
10388 10388 10389 10389 10390 10390 10390 10391 10391 10391 10391 10392 10392 10391 10392 10393 10395 10396 10396 10395 10393 10393 10392 10392 10393 10396 10398 10398 10399 10400 10401 10402 10403 10403 10404 10405 10405 10406 10406 10408 10409 10410 10411 10413 10414 10415 10416 10417 10418 10419 10420 10421 10422 10423 10424 10425 10426 10426 10428 10428 10430 10431 10431 10433 10434 10435 10436 10436 10438 10438 10439 10440 10440 10441 10442 10443 10444 10445 10446 10446 10447 10448 10449 10450 10450 10450
10376 10377 10378 10378 10378 10379 10380 10380 10380 10380 10381 10381 10382 10381 10381 10382 10384 10386 10386 10386 10386 10385 10385 10384 10384 10386 10388 10390 10391 10392 10393 10394 10395 10396 10397 10397 10397 10398 10399 10400 10401 10403 10404 10405 10406 10408 10409 10410 10411 10413 10414 10415 10416 10416 10418 10418 10420 10421 10421 10423 10424 10425 10426 10427 10428 10430 10430 10431 10433 10433 10434 10435 10435 10436 10437 10438 10440 10440 10441 10442 10443 10443 10445 10445 10446 10446
10365 10366 10366 10367 10367 10368 10368 10370 10370 10370 10370 10370 10371 10372 10372 10373 10374 10376 10376 10376 10376 10377 10377 10376 10376 10376 10379 10382 10383 10385 10385 10386 10387 10388 10390 10390 10390 10391 10392 10393 10394 10395 10397 10398 10400 10401 10402 10403 10405 10406 10407 10408 10409 10410 10411 10412 10413 10415 10415 10416 10418 10419 10420 10421 10423 10424 10425 10426 10427 10428 10429 10430 10430 10431 10432 10433 10435 10435 10436 10437 10438 10439 10440 10440 10441 10441
10354 10355 10355 10356 10356 10356 10358 10358 10359 10358 10358 10359 10360 10361 10362 10363 10364 10365 10367 10367 10368 10368 10369 10368 10367 10368 10370 10373 10375 10376 10377 10378 10379 10380 10381 10382 10383 10383 10385 10385 10386 10388 10390 10391 10392 10393 10395 10396 10397 10398 10400 10401 10402 10403 10405 10405 10406 10408 10409 10410 10411 10413 10415 10416 10416 10418 10419 10420 10421 10423 10423 10424 10425 10426 10427 10428 10429 10430 10431 10432 10433 10434 10435 10435 10436 10436
10343 10343 10345 10344 10344 10345 10346 10347 10348 10348 10347 10348 10349 10351 10351 10352 10353 10355 10357 10358 10358 10360 10361 10360 10360 10359 10360 10363 10365 10368 10369 10370 10370 10372 10373 10374 10375 10376 10378 10378 10379 10381 10383 10385 10386 10386 10388 10389 10390 10391 10393 10394 10395 10396 10397 10398 10400 10401 10403 10404 10405 10406 10408 10410 10411 10412 10413 10415 10416 10416 10418 10418 10420 10420 10421 10423 10423 10425 10425 10426 10427 10428 10430 10430 10431 10431
10331 10332 10332 10332 10333 10333 10334 10335 10336 10336 10336 10336 10338 10339 10340 10341 10342 10343 10346 10348 10349 10350 10352 10352 10352 10351 10351 10352 10355 10358 10361 10361 10361 10363 10365 10366 10367 10368 10371 10371 10372 10373 10376 10378 10379 10380 10381 10382 10383 10384 10385 10386 10388 10388 10390 10391 10393 10394 10396 10397 10398 10400 10401 10403 10405 10406 10407 10408 10410 10411 10412 10413 10413 10415 10416 10416 10418 10419 10420 10421 10422 10423 10424 10425 10425 10426
10318 10319 10320 10320 10320 10321 10321 10323 10324 10324 10324 10325 10325 10326 10328 10329 10331 10333 10335 10336 10338 10340 10342 10343 10343 10344 10343 10343 10344 10346 10351 10354 10354 10353 10356 10358 10359 10360 10363 10365 10365 10366 10368 10370 10371 10372 10374 10375 10375 10376 10378 10379 10380 10381 10382 10384 10385 10386 10388 10390 10391 10393 10395 10396 10398 10400 10401 10402 10404 10405 10406 10407 10408 10409 10410 10411 10412 10413 10414 10415 10416 10417 10418 10419 10420 10421
10305 10305 10307 10308 10308 10308 10308 10310 10311 10311 10311 10311 10313 10314 10315 10317 10318 10321 10323 10325 10326 10329 10331 10333 10335 10335 10335 10335 10334 10336 10341 10345 10345 10345 10346 10349 10350 10352 10355 10356 10358 10358 10360 10362 10363 10365 10366 10367 10368 10369 10370 10371 10372 10373 10375 10376 10378 10379 10381 10383 10385 10386 10388 10390 10391 10393 10395 10396 10397 10398 10400 10401 10401 10403 10404 10405 10406 10407 10408 10409 10410 10411 10412 10413 10415 10415
10292 10292 10293 10295 10296 10296 10296 10296 10298 10298 10299 10299 10300 10301 10303 10305 10306 10308 10311 10313 10315 10317 10320 10323 10324 10325 10325 10326 10326 10326 10330 10335 10336 10335 10336 10339 10341 10343 10346 10348 10349 10350 10352 10354 10355 10357 10358 10359 10360 10361 10363 10363 10365 10366 10367 10368 10370 10371 10373 10375 10377 10379 10381 10383 10385 10386 10388 10390 10391 10392 10393 10395 10395 10396 10398 10399 10400 10401 10401 10403 10404 10405 10406 10407 10408 10410
10280 10280 10281 10282 10284 10285 10285 10284 10284 10285 10287 10288 10287 10288 10289 10291 10293 10295 10298 10300 10301 10305 10308 10311 10313 10315 10316 10318 10318 10318 10321 10325 10326 10326 10326 10329 10331 10333 10335 10338 10341 10341 10343 10345 10346 10348 10350 10351 10352 10354 10355 10356 10357 10358 10359 10360 10362 10364 10366 10368 10370 10372 10374 10376 10378 10379 10381 10382 10384 10385 10387 10388 10389 10390 10391 10393 10393 10395 10396 10396 10398 10399 10400 10401 10402 10403
10267 10268 10268 10269 10270 10272 10273 10271 10271 10273 10275 10276 10275 10274 10275 10277 10280 10283 10285 10286 10288 10292 10295 10298 10300 10303 10306 10308 10309 10309 10311 10315 10316 10316 10316 10319 10321 10323 10325 10329 10331 10333 10333 10335 10338 10340 10341 10343 10344 10346 10347 10348 10349 10350 10351 10353 10354 10356 10358 10360 10363 10365 10366 10369 10370 10372 10374 10375 10377 10378 10380 10381 10383 10384 10385 10386 10387 10388 10389 10390 10391 10393 10394 10395 10396 10397
10252 10253 10255 10255 10256 10258 10259 10258 10259 10260 10262 10263 10262 10261 10261 10263 10266 10269 10271 10273 10275 10279 10281 10284 10288 10291 10295 10298 10298 10299 10300 10303 10304 10305 10307 10309 10310 10311 10315 10319 10322 10323 10323 10325 10328 10331 10333 10334 10336 10338 10339 10340 10341 10341 10343 10345 10346 10348 10350 10353 10355 10357 10360 10361 10363 10365 10366 10368 10370 10371 10373 10375 10376 10377 10379 10380 10381 10382 10383 10384 10385 10386 10388 10389 10390 10391
10235 10237 10239 10240 10241 10243 10245 10245 10245 10246 10248 10249 10249 10248 10248 10250 10252 10255 10257 10259 10261 10265 10268 10271 10275 10279 10283 10285 10286 10288 10290 10291 10293 10295 10297 10298 10298 10301 10305 10309 10311 10312 10313 10316 10319 10321 10323 10325 10327 10329 10331 10331 10332 10333 10335 10336 10338 10340 10343 10345 10347 10350 10352 10354 10356 10358 10360 10361 10363 10365 10366 10368 10369 10371 10372 10373 10375 10376 10377 10378 10379 10380 10381 10383 10384 10385
10218 10220 10223 10225 10226 10228 10230 10231 10231 10232 10233 10234 10235 10235 10235 10236 10238 10240 10243 10245 10248 10251 10254 10257 10261 10265 10268 10271 10275 10277 10278 10279 10281 10285 10286 10286 10288 10290 10295 10298 10301 10302 10303 10305 10309 10312 10314 10315 10318 10320 10322 10323 10323 10325 10326 10328 10330 10332 10335 10337 10340 10342 10345 10347 10349 10351 10353 10354 10356 10357 10359 10361 10362 10364 10365 10367 10368 10370 10370 10372 10373 10374 10375 10376 10378 10379
10203 10205 10206 10208 10210 10213 10215 10216 10217 10218 10219 10220 10220 10221 10221 10222 10224 10226 10229 10231 10233 10236 10240 10243 10246 10250 10253 10258 10262 10265 10265 10266 10270 10273 10275 10276 10277 10280 10283 10287 10290 10293 10293 10295 10299 10303 10304 10306 10308 10310 10312 10313 10314 10316 10318 10320 10321 10324 10326 10329 10331 10334 10336 10339 10341 10343 10345 10347 10348 10350 10351 10353 10355 10357 10359 10360 10361 10363 10364 10365 10366 10368 10369 10371 10372 10373
10189 10190 10191 10193 10195 10196 10199 10201 10202 10203 10205 10206 10206 10207 10208 10209 10211 10213 10215 10216 10218 10221 10225 10230 10233 10235 10238 10244 10248 10251 10251 10253 10257 10261 10263 10265 10267 10270 10271 10275 10280 10283 10285 10286 10289 10292 10294 10296 10297 10300 10302 10303 10305 10307 10309 10311 10313 10315 10318 10320 10323 10326 10329 10331 10334 10336 10338 10340 10341 10343 10345 10346 10348 10350 10352 10353 10355 10356 10358 10359 10360 10361 10363 10365 10366 10367
10176 10176 10177 10178 10180 10181 10184 10186 10187 10189 10190 10191 10193 10193 10195 10196 10198 10200 10200 10201 10202 10206 10211 10215 10218 10220 10223 10229 10233 10236 10238 10241 10245 10248 10250 10253 10256 10258 10259 10263 10268 10273 10275 10276 10279 10282 10284 10285 10287 10289 10291 10294 10296 10298 10300 10302 10304 10306 10309 10311 10315 10318 10321 10323 10326 10328 10330 10332 10334 10336 10337 10339 10341 10343 10345 10346 10348 10350 10351 10352 10354 10355 10357 10358 10360 10361
10162 10163 10163 10165 10166 10168 10170 10170 10172 10174 10176 10177 10178 10180 10180 10181 10183 10185 10186 10186 10188 10192 10197 10200 10201 10203 10208 10215 10219 10222 10225 10228 10231 10233 10236 10241 10245 10246 10246 10251 10257 10261 10263 10265 10268 10271 10273 10275 10276 10278 10281 10284 10286 10289 10291 10293 10295 10298 10300 10303 10306 10309 10312 10315 10318 10320 10322 10325 10326 10328 10330 10332 10334 10336 10338 10340 10341 10343 10345 10346 10347 10349 10351 10352 10353 10355
10148 10148 10148 10150 10151 10153 10155 10156 10157 10160 10161 10163 10165 10166 10166 10167 10168 10170 10172 10173 10175 10178 10183 10185 10186 10188 10194 10201 10205 10208 10210 10213 10216 10219 10224 10230 10233 10233 10233 10240 10245 10249 10250 10254 10258 10260 10261 10263 10265 10269 10273 10274 10276 10280 10282 10284 10286 10288 10291 10293 10296 10300 10303 10306 10309 10311 10314 10316 10318 10321 10323 10325 10326 10328 10330 10333 10334 10336 10338 10339 10340 10343 10345 10346 10347 10348
10135 10135 10135 10136 10137 10138 10140 10141 10143 10144 10146 10148 10150 10151 10152 10153 10154 10156 10159 10161 10163 10165 10168 10171 10172 10175 10180 10187 10191 10195 10196 10198 10201 10206 10213 10219 10220 10218 10219 10227 10233 10235 10237 10242 10247 10250 10250 10251 10255 10260 10263 10264 10266 10269 10272 10275 10276 10279 10281 10284 10287 10290 10293 10297 10300 10303 10305 10308 10310 10313 10315 10316 10319 10321 10323 10325 10327 10329 10330 10332 10334 10336 10338 10339 10340 10341
10122 10123 10123 10123 10124 10125 10126 10127 10129 10130 10131 10133 10135 10136 10137 10138 10140 10143 10145 10148 10150 10153 10156 10158 10160 10163 10167 10173 10177 10180 10183 10185 10188 10194 10201 10205 10205 10203 10206 10213 10220 10223 10224 10230 10236 10238 10238 10240 10244 10248 10251 10254 10256 10258 10261 10265 10268 10270 10272 10275 10278 10281 10284 10288 10291 10294 10296 10300 10302 10305 10306 10309 10311 10313 10315 10318 10320 10321 10323 10325 10327 10329 10331 10333 10333 10335
10111 10111 10111 10111 10112 10113 10113 10115 10116 10116 10118 10120 10121 10122 10123 10125 10126 10128 10131 10133 10136 10140 10143 10145 10148 10150 10154 10158 10163 10167 10170 10173 10177 10181 10185 10188 10190 10191 10194 10201 10206 10210 10212 10217 10223 10226 10228 10230 10233 10237 10240 10243 10245 10248 10251 10255 10258 10260 10263 10266 10268 10271 10274 10278 10282 10285 10288 10291 10294 10296 10298 10301 10303 10305 10308 10310 10312 10314 10316 10318 10320 10322 10324 10326 10327 10328
10100 10100 10099 10099 10100 10100 10101 10102 10103 10104 10105 10106 10108 10110 10111 10112 10114 10115 10118 10120 10123 10126 10129 10132 10135 10138 10140 10145 10149 10153 10158 10162 10165 10167 10170 10173 10175 10178 10181 10188 10194 10198 10201 10205 10210 10214 10217 10219 10222 10226 10229 10231 10233 10236 10241 10245 10248 10250 10253 10256 10260 10262 10265 10269 10273 10276 10278 10281 10285 10288 10290 10293 10295 10298 10300 10302 10305 10306 10309 10311 10313 10315 10317 10319 10320 10321
10089 10088 10088 10088 10088 10089 10090 10090 10091 10093 10094 10095 10096 10098 10099 10101 10102 10104 10106 10108 10111 10114 10117 10120 10123 10126 10128 10132 10136 10141 10146 10150 10152 10154 10156 10159 10162 10165 10168 10174 10180 10186 10190 10193 10196 10200 10204 10206 10210 10214 10218 10220 10222 10225 10230 10233 10237 10240 10244 10247 10250 10253 10255 10260 10263 10266 10269 10273 10276 10279 10281 10285 10287 10290 10292 10294 10296 10299 10301 10303 10305 10308 10310 10312 10314 10315
10080 10079 10078 10078 10078 10079 10080 10081 10082 10083 10084 10085 10086 10087 10088 10090 10091 10093 10095 10098 10100 10103 10106 10109 10111 10115 10117 10121 10125 10129 10133 10137 10140 10141 10143 10146 10149 10153 10156 10161 10166 10172 10177 10181 10185 10188 10191 10193 10197 10201 10206 10209 10211 10214 10217 10222 10226 10231 10234 10237 10240 10243 10246 10250 10253 10257 10260 10263 10266 10269 10272 10275 10279 10281 10283 10286 10288 10291 10293 10296 10298 10300 10303 10305 10307 10309
10070 10070 10068 10068 10069 10070 10070 10071 10073 10074 10075 10075 10076 10078 10080 10081 10082 10084 10085 10087 10090 10092 10095 10097 10100 10103 10106 10110 10114 10118 10121 10125 10128 10130 10131 10133 10136 10140 10145 10149 10153 10157 10162 10167 10172 10176 10178 10182 10185 10189 10194 10198 10200 10202 10205 10210 10216 10221 10223 10226 10229 10233 10236 10240 10244 10248 10250 10253 10256 10260 10263 10266 10270 10273 10275 10278 10280 10283 10286 10288 10290 10293 10296 10298 10301 10303
10060 10060 10060 10060 10060 10060 10061 10061 10063 10063 10064 10066 10068 10070 10071 10071 10072 10073 10075 10076 10079 10081 10084 10086 10090 10093 10096 10100 10103 10106 10110 10113 10116 10117 10118 10120 10123 10128 10133 10136 10140 10143 10148 10152 10158 10163 10167 10171 10175 10178 10181 10185 10188 10191 10195 10200 10205 10208 10211 10215 10219 10223 10228 10231 10234 10238 10241 10244 10246 10250 10254 10258 10261 10263 10266 10269 10272 10275 10278 10280 10283 10286 10289 10291 10294 10295
10051 10051 10051 10051 10051 10051 10052 10053 10053 10054 10055 10056 10058 10060 10061 10061 10062 10063 10065 10067 10069 10071 10074 10076 10079 10082 10086 10089 10093 10096 10099 10102 10104 10105 10106 10108 10111 10115 10120 10124 10127 10130 10134 10139 10143 10148 10153 10158 10163 10166 10169 10173 10176 10181 10185 10188 10192 10196 10200 10203 10209 10214 10218 10220 10223 10228 10231 10234 10237 10241 10245 10248 10251 10255 10258 10260 10263 10266 10268 10271 10275 10278 10281 10284 10286 10288
10043 10043 10042 10042 10043 10043 10044 10045 10045 10046 10046 10047 10048 10050 10051 10052 10053 10055 10056 10058 10060 10062 10065 10066 10070 10073 10076 10079 10082 10085 10088 10091 10093 10094 10096 10098 10100 10104 10108 10111 10115 10118 10122 10126 10131 10135 10140 10144 10149 10154 10159 10162 10165 10169 10173 10176 10181 10185 10189 10193 10198 10203 10206 10209 10213 10218 10221 10225 10228 10231 10235 10238 10243 10246 10249 10251 10254 10257 10260 10263 10266 10270 10273 10276 10278 10280
10035 10035 10035 10035 10035 10035 10036 10036 10036 10038 10038 10040 10040 10041 10042 10043 10045 10046 10048 10050 10051 10053 10055 10058 10060 10063 10066 10069 10072 10075 10078 10080 10083 10085 10086 10088 10090 10093 10096 10101 10105 10108 10111 10115 10120 10123 10127 10131 10136 10141 10146 10151 10155 10158 10162 10165 10169 10173 10178 10183 10187 10191 10194 10199 10204 10209 10212 10215 10218 10221 10225 10229 10233 10237 10240 10242 10245 10248 10251 10255 10258 10261 10265 10268 10270 10272
10028 10027 10027 10027 10027 10028 10028 10028 10029 10030 10031 10031 10033 10033 10035 10036 10037 10038 10040 10041 10043 10045 10046 10049 10051 10054 10056 10060 10063 10066 10068 10071 10073 10075 10077 10079 10081 10084 10087 10091 10095 10098 10101 10105 10108 10112 10116 10121 10125 10130 10134 10140 10145 10149 10152 10155 10158 10162 10167 10171 10176 10180 10183 10189 10193 10197 10200 10204 10208 10212 10216 10220 10223 10226 10230 10233 10237 10240 10243 10247 10250 10253 10256 10260 10262 10265
10021 10021 10020 10020 10020 10020 10021 10021 10022 10023 10024 10025 10025 10026 10027 10028 10030 10031 10032 10033 10035 10036 10038 10040 10043 10045 10048 10051 10053 10056 10059 10061 10063 10065 10068 10070 10072 10075 10078 10081 10085 10088 10091 10095 10098 10101 10105 10110 10115 10119 10123 10128 10133 10138 10141 10145 10148 10151 10156 10160 10165 10169 10174 10178 10181 10185 10189 10193 10198 10201 10206 10210 10213 10216 10220 10225 10228 10231 10235 10239 10242 10245 10248 10251 10254 10256
10015 10014 10014 10014 10014 10014 10015 10015 10016 10017 10018 10018 10018 10019 10020 10021 10022 10023 10025 10026 10027 10028 10030 10032 10035 10037 10040 10042 10045 10047 10050 10051 10053 10056 10058 10060 10063 10065 10068 10071 10075 10078 10081 10085 10088 10091 10095 10100 10104 10108 10113 10118 10123 10128 10131 10134 10138 10141 10145 10149 10153 10158 10162 10165 10170 10175 10180 10185 10188 10191 10195 10200 10204 10208 10212 10216 10219 10222 10226 10230 10233 10236 10240 10243 10246 10249
10008 10008 10008 10008 10008 10008 10008 10008 10009 10010 10010 10011 10011 10012 10013 10014 10015 10016 10017 10018 10020 10021 10022 10024 10026 10029 10031 10033 10036 10038 10040 10041 10044 10046 10048 10051 10054 10056 10059 10062 10065 10068 10071 10075 10078 10081 10086 10090 10094 10098 10103 10108 10113 10118 10121 10124 10127 10131 10135 10138 10143 10147 10151 10155 10160 10165 10171 10174 10177 10180 10185 10190 10195 10199 10203 10206 10209 10212 10216 10221 10225 10228 10231 10235 10238 10241
10003 10002 10002 10001 10001 10001 10002 10002 10003 10003 10003 10004 10005 10005 10006 10007 10008 10009 10010 10011 10012 10013 10015 10016 10019 10021 10023 10025 10026 10028 10030 10032 10035 10037 10040 10042 10045 10048 10051 10053 10056 10059 10062 10066 10070 10073 10077 10081 10085 10090 10094 10099 10103 10106 10110 10114 10118 10121 10125 10128 10132 10136 10140 10145 10150 10155 10160 10163 10167 10171 10176 10180 10185 10189 10193 10195 10198 10203 10207 10212 10216 10220 10223 10227 10230 10233
9997 9996 9996 9996 9996 9996 9996 9996 9996 9996 9997 9998 9998 9998 9999 10000 10001 10002 10003 10004 10005 10006 10008 10010 10011 10013 10015 10017 10019 10021 10022 10024 10026 10029 10031 10034 10036 10040 10042 10045 10048 10051 10054 10058 10061 10065 10069 10073 10077 10081 10085 10090 10093 10096 10100 10105 10109 10112 10115 10118 10122 10126 10130 10133 10138 10144 10149 10154 10158 10161 10166 10170 10175 10179 10181 10185 10189 10194 10198 10203 10207 10211 10215 10219 10222 10225
9991 9991 9991 9991 9990 9990 9990 9990 9991 9991 9991 9991 9991 9992 9993 9994 9995 9995 9996 9998 9999 10000 10001 10003 10005 10006 10008 10010 10011 10013 10015 10017 10020 10021 10024 10026 10029 10031 10034 10036 10040 10043 10046 10050 10053 10057 10061 10065 10069 10073 10076 10080 10083 10087 10091 10096 10100 10103 10106 10110 10113 10116 10120 10123 10128 10134 10140 10145 10148 10152 10156 10160 10164 10168 10171 10175 10180 10185 10189 10193 10198 10203 10207 10211 10214 10217
9986 9986 9986 9985 9985 9985 9985 9985 9985 9985 9985 9985 9986 9986 9987 9988 9989 9990 9991 9992 9993 9995 9996 9997 9998 10000 10001 10003 10005 10006 10008 10010 10012 10015 10016 10019 10021 10024 10026 10030 10032 10036 10039 10043 10046 10050 10054 10058 10061 10065 10068 10072 10075 10078 10083 10087 10091 10095 10098 10101 10103 10106 10110 10113 10119 10125 10130 10135 10138 10142 10146 10150 10154 10157 10161 10167 10171 10175 10179 10183 10189 10194 10198 10202 10206 10209
9982 9981 9981 9980 9980 9980 9980 9980 9980 9980 9980 9980 9981 9981 9982 9983 9983 9985 9985 9986 9987 9988 9990 9991 9992 9994 9995 9996 9998 10000 10002 10004 10006 10008 10010 10012 10015 10017 10020 10023 10026 10029 10032 10036 10039 10043 10046 10050 10053 10057 10060 10064 10067 10070 10074 10078 10082 10086 10090 10092 10095 10097 10100 10105 10110 10115 10120 10125 10129 10133 10138 10141 10145 10149 10153 10158 10161 10165 10170 10175 10180 10185 10189 10193 10198 10201
9978 9976 9976 9976 9975 9975 9975 9975 9975 9975 9975 9975 9976 9976 9976 9977 9978 9979 9980 9980 9981 9983 9984 9985 9986 9988 9989 9990 9992 9994 9996 9998 10000 10001 10003 10006 10008 10011 10014 10017 10020 10023 10026 10029 10032 10036 10039 10043 10046 10049 10053 10056 10059 10062 10066 10070 10073 10078 10081 10083 10085 10088 10092 10096 10101 10106 10111 10115 10120 10124 10128 10132 10136 10140 10144 10148 10152 10156 10161 10166 10171 10176 10180 10185 10189 10193